• Em Portugal
  • Lista de países
  • Para 7 dias
  • Temperatura da água
  • Mapas de satélite
  • Mapa do tempo
  • Widgets de tempo
  • user-avatar
    Iniciar Sessão

    Previsão horária em Djelfa

    Hoje, 15 Julho, Domingo

    Tempo Temperatura Precipitação Vento Pressão Humidade
    00:00 +32°C° 0 mm 2 m/s 669 mmHg 17%
    01:00 +31°C° 0 mm 2 m/s 669 mmHg 18%
    02:00 +30°C° 0 mm 2 m/s 669 mmHg 18%
    03:00 +30°C° 0 mm 1 m/s 668 mmHg 19%
    04:00 +30°C° 0 mm 2 m/s 669 mmHg 18%
    05:00 +30°C° 0 mm 2 m/s 669 mmHg 17%
    06:00 +32°C° 0 mm 2 m/s 669 mmHg 17%
    07:00 +35°C° 0 mm 4 m/s 670 mmHg 15%
    08:00 +38°C° 0 mm 6 m/s 670 mmHg 12%
    09:00 +39°C° 0 mm 8 m/s 671 mmHg 10%
    10:00 +41°C° 0 mm 8 m/s 671 mmHg 9%
    11:00 +43°C° 0 mm 8 m/s 671 mmHg 8%
    12:00 +44°C° 0 mm 9 m/s 671 mmHg 7%
    13:00 +44°C° 0 mm 8 m/s 670 mmHg 7%
    14:00 +44°C° 0 mm 8 m/s 670 mmHg 6%
    15:00 +44°C° 0 mm 8 m/s 669 mmHg 6%
    16:00 +43°C° 0 mm 7 m/s 669 mmHg 7%
    17:00 +43°C° 0 mm 7 m/s 669 mmHg 7%
    18:00 +41°C° 0 mm 6 m/s 669 mmHg 7%
    19:00 +40°C° 0 mm 6 m/s 669 mmHg 9%
    20:00 +39°C° 0 mm 5 m/s 669 mmHg 10%
    21:00 +37°C° 0 mm 4 m/s 669 mmHg 11%
    22:00 +36°C° 0 mm 4 m/s 669 mmHg 13%
    23:00 +35°C° 0 mm 4 m/s 669 mmHg 16%

    Amanhã, 16 Julho, Segunda-feira

    Tempo Temperatura Precipitação Vento Pressão Humidade
    00:00 +34°C° 0 mm 4 m/s 669 mmHg 18%
    01:00 +32°C° 0 mm 4 m/s 669 mmHg 22%
    02:00 +30°C° 0 mm 4 m/s 668 mmHg 25%
    03:00 +29°C° 0 mm 3 m/s 668 mmHg 29%
    04:00 +28°C° 0 mm 3 m/s 668 mmHg 31%
    05:00 +28°C° 0 mm 3 m/s 668 mmHg 34%
    06:00 +27°C° 0 mm 3 m/s 668 mmHg 36%
    07:00 +28°C° 0 mm 4 m/s 668 mmHg 31%
    08:00 +30°C° 0 mm 4 m/s 669 mmHg 26%
    09:00 +32°C° 0 mm 5 m/s 669 mmHg 21%
    10:00 +34°C° 0 mm 5 m/s 670 mmHg 19%
    11:00 +35°C° 0 mm 5 m/s 670 mmHg 17%
    12:00 +38°C° 0 mm 6 m/s 670 mmHg 14%
    13:00 +38°C° 0 mm 6 m/s 670 mmHg 13%
    14:00 +39°C° 0 mm 6 m/s 669 mmHg 12%
    15:00 +40°C° 0 mm 6 m/s 669 mmHg 12%
    16:00 +39°C° 0 mm 6 m/s 669 mmHg 12%
    17:00 +38°C° 0 mm 6 m/s 669 mmHg 13%
    18:00 +38°C° 0 mm 6 m/s 669 mmHg 13%
    19:00 +35°C° 0 mm 6 m/s 669 mmHg 14%
    20:00 +34°C° 0 mm 5 m/s 669 mmHg 15%
    21:00 +32°C° 0 mm 5 m/s 669 mmHg 16%
    22:00 +32°C° 0 mm 4 m/s 669 mmHg 18%
    23:00 +30°C° 0 mm 4 m/s 669 mmHg 21%

    Depois de amanhã, 17 Julho, Terça-feira

    Tempo Temperatura Precipitação Vento Pressão Humidade
    00:00 +29°C° 0 mm 3 m/s 669 mmHg 23%
    01:00 +29°C° 0 mm 2 m/s 668 mmHg 24%
    02:00 +28°C° 0 mm 2 m/s 668 mmHg 26%
    03:00 +27°C° 0 mm 1 m/s 668 mmHg 27%
    04:00 +27°C° 0 mm 1 m/s 668 mmHg 26%
    05:00 +28°C° 0 mm 1 m/s 668 mmHg 25%
    06:00 +28°C° 0 mm 1 m/s 668 mmHg 24%
    07:00 +30°C° 0 mm 2 m/s 669 mmHg 21%
    08:00 +31°C° 0 mm 2 m/s 669 mmHg 18%
    09:00 +34°C° 0 mm 2 m/s 670 mmHg 15%
    10:00 +36°C° 0 mm 3 m/s 670 mmHg 13%
    11:00 +37°C° 0 mm 3 m/s 670 mmHg 12%
    12:00 +40°C° 0 mm 4 m/s 670 mmHg 11%
    13:00 +40°C° 0 mm 4 m/s 669 mmHg 10%
    14:00 +41°C° 0 mm 4 m/s 669 mmHg 9%
    15:00 +41°C° 0 mm 4 m/s 669 mmHg 9%
    16:00 +40°C° 0 mm 3 m/s 669 mmHg 9%
    17:00 +39°C° 0 mm 3 m/s 668 mmHg 9%
    18:00 +39°C° 0 mm 2 m/s 668 mmHg 10%
    19:00 +38°C° 0 mm 3 m/s 668 mmHg 10%
    20:00 +37°C° 0 mm 3 m/s 668 mmHg 11%
    21:00 +36°C° 0 mm 4 m/s 669 mmHg 12%
    22:00 +35°C° 0 mm 5 m/s 668 mmHg 15%
    23:00 +34°C° 0 mm 5 m/s 668 mmHg 18%

    18 Julho, Quarta-feira

    Tempo Temperatura Precipitação Vento Pressão Humidade
    00:00 +34°C° 0 mm 6 m/s 668 mmHg 22%
    01:00 +33°C° 0 mm 6 m/s 667 mmHg 23%
    02:00 +33°C° 0 mm 6 m/s 667 mmHg 24%
    03:00 +32°C° 0 mm 6 m/s 667 mmHg 25%
    04:00 +32°C° 0 mm 6 m/s 667 mmHg 25%
    05:00 +32°C° 0 mm 6 m/s 667 mmHg 26%
    06:00 +32°C° 0 mm 6 m/s 667 mmHg 27%
    07:00 +34°C° 0 mm 6 m/s 668 mmHg 22%
    08:00 +35°C° 0 mm 7 m/s 669 mmHg 18%
    09:00 +38°C° 0 mm 8 m/s 669 mmHg 14%
    10:00 +40°C° 0 mm 7 m/s 669 mmHg 12%
    11:00 +41°C° 0 mm 7 m/s 669 mmHg 9%
    12:00 +44°C° 0 mm 7 m/s 669 mmHg 7%
    13:00 +44°C° 0 mm 7 m/s 669 mmHg 6%
    14:00 +44°C° 0 mm 6 m/s 669 mmHg 5%
    15:00 +44°C° 0 mm 6 m/s 668 mmHg 4%
    16:00 +44°C° 0 mm 6 m/s 668 mmHg 4%
    17:00 +42°C° 0 mm 5 m/s 668 mmHg 5%
    18:00 +42°C° 0 mm 5 m/s 668 mmHg 5%
    19:00 +40°C° 0 mm 5 m/s 668 mmHg 7%
    20:00 +39°C° 0 mm 5 m/s 668 mmHg 10%
    21:00 +36°C° 0 mm 5 m/s 668 mmHg 12%
    22:00 +35°C° 0 mm 4 m/s 668 mmHg 15%
    23:00 +34°C° 0 mm 3 m/s 668 mmHg 18%

    19 Julho, Quinta-feira

    Tempo Temperatura Precipitação Vento Pressão Humidade
    00:00 +32°C° 0 mm 2 m/s 667 mmHg 21%
    01:00 +31°C° 0 mm 1 m/s 667 mmHg 21%
    02:00 +31°C° 0 mm 1 m/s 667 mmHg 22%
    03:00 +31°C° 0 mm 1 m/s 667 mmHg 22%
    04:00 +30°C° 0 mm 1 m/s 667 mmHg 24%
    05:00 +30°C° 0 mm 1 m/s 667 mmHg 26%
    06:00 +30°C° 0 mm 2 m/s 667 mmHg 28%
    07:00 +32°C° 0 mm 2 m/s 668 mmHg 25%
    08:00 +35°C° 0 mm 2 m/s 668 mmHg 21%
    09:00 +36°C° 0 mm 2 m/s 669 mmHg 18%
    10:00 +37°C° 0 mm 2 m/s 669 mmHg 16%
    11:00 +39°C° 0 mm 2 m/s 669 mmHg 13%
    12:00 +40°C° 0 mm 2 m/s 669 mmHg 10%
    13:00 +40°C° 0 mm 2 m/s 669 mmHg 10%
    14:00 +42°C° 0 mm 3 m/s 668 mmHg 10%
    15:00 +42°C° 0 mm 3 m/s 668 mmHg 9%
    16:00 +41°C° 0 mm 4 m/s 668 mmHg 10%
    17:00 +40°C° 0 mm 4 m/s 668 mmHg 12%
    18:00 +40°C° 0 mm 5 m/s 668 mmHg 13%
    19:00 +38°C° 0 mm 4 m/s 668 mmHg 13%
    20:00 +37°C° 0 mm 3 m/s 668 mmHg 14%
    21:00 +36°C° 0 mm 2 m/s 668 mmHg 15%
    22:00 +36°C° 0 mm 2 m/s 668 mmHg 16%
    23:00 +35°C° 0 mm 2 m/s 668 mmHg 17%

    20 Julho, Sexta-feira

    Tempo Temperatura Precipitação Vento Pressão Humidade
    00:00 +33°C° 0 mm 1 m/s 667 mmHg 18%
    01:00 +32°C° 0 mm 2 m/s 667 mmHg 20%
    02:00 +31°C° 0 mm 2 m/s 667 mmHg 22%
    03:00 +31°C° 0 mm 2 m/s 667 mmHg 24%
    04:00 +30°C° 0 mm 2 m/s 667 mmHg 27%
    05:00 +30°C° 0 mm 2 m/s 667 mmHg 29%
    06:00 +30°C° 0 mm 2 m/s 667 mmHg 32%
    07:00 +31°C° 0 mm 2 m/s 667 mmHg 28%
    08:00 +34°C° 0 mm 2 m/s 668 mmHg 24%
    09:00 +36°C° 0 mm 3 m/s 668 mmHg 20%
    10:00 +37°C° 0 mm 3 m/s 668 mmHg 18%
    11:00 +38°C° 0 mm 3 m/s 668 mmHg 16%
    12:00 +39°C° 0 mm 3 m/s 668 mmHg 14%
    13:00 +40°C° 0 mm 3 m/s 668 mmHg 13%
    14:00 +41°C° 0 mm 4 m/s 668 mmHg 11%
    15:00 +42°C° 0 mm 5 m/s 668 mmHg 10%
    16:00 +41°C° 0 mm 4 m/s 667 mmHg 10%
    17:00 +40°C° 0 mm 3 m/s 667 mmHg 11%
    18:00 +40°C° 0 mm 3 m/s 667 mmHg 11%
    19:00 +38°C° 0 mm 3 m/s 667 mmHg 12%
    20:00 +37°C° 0 mm 3 m/s 668 mmHg 14%
    21:00 +36°C° 0 mm 4 m/s 668 mmHg 15%
    22:00 +35°C° 0 mm 4 m/s 668 mmHg 17%
    23:00 +35°C° 0 mm 4 m/s 667 mmHg 19%
    Mostrar mais